Regional Weather Roundup
Issued by NWS

Home | Current Version | Previous Version | Graphics & Text | Print | Product List | Glossary On
Versions: 1 2 3 4 5 6 7 8 9 10 11 12 13 14 15 16 17 18 19 20 21 22 23 24 25 26 27 28 29 30 31 32 33 34 35 36 37 38 39 40 41 42 43 44 45 46 47 48 49 50
000
ASUS43 KOAX 051510
RWRNE

WEATHER ROUNDUP FOR NEBRASKA
NATIONAL WEATHER SERVICE OMAHA NE
1000 AM CDT SAT SEP 05 2015

NOTES: SATELLITE DATA IS BEING USED TO AUGMENT CLOUD COVER ABOVE
       12000 FEET.
       "FAIR" INDICATES FEW OR NO CLOUDS BELOW 12,000 FEET WITH NO
       SIGNIFICANT WEATHER AND/OR OBSTRUCTIONS TO VISIBILITY.

  * THESE STATIONS DO NOT REPORT WEATHER SUCH AS RAIN...SNOW OR FOG.

NEZ001>004-019>022-054>056-051600-
NEBRASKA PANHANDLE

CITY           SKY/WX    TMP DP  RH WIND       PRES   REMARKS
SCOTTSBLUFF    CLOUDY    72  56  57 W8        29.90S
ALLIANCE       PTSUNNY   73  58  59 W9        29.88S
CHADRON        CLOUDY    70  59  68 S5        29.85R
KIMBALL        PTSUNNY   73  49  41 NW10      29.95R
SIDNEY         PTSUNNY   75  56  51 W7        29.92R
$$

NEZ057>060-069>072-079>082-051600-
SOUTHWEST NEBRASKA

CITY           SKY/WX    TMP DP  RH WIND       PRES   REMARKS
NORTH PLATTE   CLOUDY    75  59  57 SE8       29.85S
IMPERIAL       CLOUDY    77  55  46 SW8       29.88R
LEXINGTON      CLOUDY    76  64  65 S15       29.88S
MCCOOK         CLOUDY    79  59  50 S10       29.87R
OGALLALA       CLOUDY    75  56  50 S10       29.86S
$$

NEZ005>010-023>029-035>040-094-051600-
NORTH CENTRAL NEBRASKA

CITY           SKY/WX    TMP DP  RH WIND       PRES   REMARKS
VALENTINE      CLOUDY    73  64  73 VRB3      29.83R
AINSWORTH      CLOUDY    72  64  74 SE6       29.84S
BROKEN BOW     PTSUNNY   78  63  59 S6        29.87S
O`NEILL        PTSUNNY   81  66  60 S17       29.84F
ORD            MOSUNNY   80  64  58 S13G23    29.85F
THEDFORD       CLOUDY    78  60  55 S15       29.85S
$$

NEZ041-046>049-061>064-073>077-083>087-051600-
SOUTH CENTRAL NEBRASKA

CITY           SKY/WX    TMP DP  RH WIND       PRES   REMARKS
GRAND ISLAND   SUNNY     82  66  58 S24G31    29.90S
AURORA         SUNNY     80  69  67 S17G23    29.91S
HASTINGS       MOSUNNY   81  66  60 S12G23    29.91S
HEBRON         SUNNY     82  67  61 S16G22    29.94S
HOLDREGE       CLOUDY    77  62  61 S14       29.90S
KEARNEY *      PTSUNNY   79  64  61 S18G24    29.90R
YORK           SUNNY     81  70  69 S16G24    29.92S
$$

NEZ011>018-030>034-042>045-051600-
NORTHEAST NEBRASKA

CITY           SKY/WX    TMP DP  RH WIND       PRES   REMARKS
NORFOLK        SUNNY     80  69  69 S16G25    29.87S
ALBION         MOSUNNY   79  67  66 S13G20    29.88F
BLAIR          SUNNY     79  69  71 S16       29.94S
COLUMBUS *     SUNNY     79  66  65 S14       29.90S
FREMONT        SUNNY     82  70  67 S10G17    29.93S
TEKAMAH        SUNNY     81  72  74 S14G21    29.92S
WAYNE          MOSUNNY   78  72  81 S13G18    29.88S
$$

NEZ050>053-065>068-078-088>093-051600-
SOUTHEAST NEBRASKA

CITY           SKY/WX    TMP DP  RH WIND       PRES   REMARKS
LINCOLN        SUNNY     83  70  64 S15       29.94S
OMAHA EPPLEY   MOSUNNY   82  70  66 S15G22    29.95S
BEATRICE       SUNNY     82  70  67 S13       29.97S
FALLS CITY     SUNNY     83  70  64 S15       29.99S
NEBRASKA CITY  SUNNY     81  67  61 S14       29.98S
PLATTSMOUTH    SUNNY     79  69  70 S15       29.97S
$$

NEZ044-045-051>053-067-051600-
OMAHA AREA

CITY           SKY/WX    TMP DP  RH WIND       PRES   REMARKS
OMAHA EPPLEY   MOSUNNY   82  70  66 S15G22    29.95S
BLAIR          SUNNY     79  69  71 S16       29.94S
FREMONT        SUNNY     82  70  67 S10G17    29.93S
MILLARD        SUNNY     82  71  71 S10G18    29.94S
OFFUTT AFB     SUNNY     81  71  71 S13G24    29.95R
PLATTSMOUTH    SUNNY     79  69  70 S15       29.97S
WAHOO          FAIR      82  70  67 S13G23    29.93S
$$



USA.gov is the U.S. government's official web portal to all federal, state and local government web resources and services.